Time,TemperatureF,DewpointF,PressureIn,WindDirection,WindDirectionDegrees,WindSpeedMPH,WindSpeedGustMPH,Humidity,HourlyPrecipIn,Conditions,Clouds,dailyrainin,SoftwareType,DateUTC
2013-09-16 00:22:00,52.0,-99.9,-100.00,South,186,1.0,5.0,-999,0.00,,,-99.99,,2013-09-16 06:22:00,
2013-09-16 00:52:00,52.0,-99.9,-100.00,South,187,4.0,5.0,-999,0.00,,,-99.99,,2013-09-16 06:52:00,
2013-09-16 01:22:00,52.0,-99.9,-100.00,North,0,0.0,0.0,-999,0.00,,,-99.99,,2013-09-16 07:22:00,
2013-09-16 01:52:00,52.0,-99.9,-100.00,North,0,0.0,0.0,-999,0.00,,,-99.99,,2013-09-16 07:52:00,
2013-09-16 02:22:00,52.0,-99.9,-100.00,North,0,0.0,0.0,-999,0.00,,,-99.99,,2013-09-16 08:22:00,
2013-09-16 02:52:00,52.0,-99.9,-100.00,North,0,0.0,0.0,-999,0.00,,,-99.99,,2013-09-16 08:52:00,
2013-09-16 03:22:00,53.0,-99.9,-100.00,North,0,0.0,0.0,-999,0.00,,,-99.99,,2013-09-16 09:22:00,
2013-09-16 03:53:00,52.0,-99.9,-100.00,South,176,2.0,5.0,-999,0.00,,,-99.99,,2013-09-16 09:53:00,
2013-09-16 04:23:00,52.0,-99.9,-100.00,SW,228,5.0,6.0,-999,0.00,,,-99.99,,2013-09-16 10:23:00,
2013-09-16 04:53:00,51.0,-99.9,-100.00,North,0,0.0,0.0,-999,0.00,,,-99.99,,2013-09-16 10:53:00,
2013-09-16 05:22:00,51.0,-99.9,-100.00,North,0,0.0,0.0,-999,0.00,,,-99.99,,2013-09-16 11:22:00,
2013-09-16 05:52:00,51.0,-99.9,-100.00,North,0,0.0,0.0,-999,0.00,,,-99.99,,2013-09-16 11:52:00,
2013-09-16 06:22:00,52.0,-99.9,-100.00,North,0,0.0,0.0,-999,0.00,,,-99.99,,2013-09-16 12:22:00,
2013-09-16 06:52:00,48.0,-99.9,-100.00,North,0,0.0,0.0,-999,0.00,,,-99.99,,2013-09-16 12:52:00,
2013-09-16 07:22:00,48.0,-99.9,-100.00,North,0,0.0,0.0,-999,0.00,,,-99.99,,2013-09-16 13:22:00,
2013-09-16 07:53:00,49.0,-99.9,-100.00,South,181,2.0,5.0,-999,0.00,,,-99.99,,2013-09-16 13:53:00,
2013-09-16 08:22:00,52.0,-99.9,-100.00,SSW,205,6.0,7.0,-999,0.00,,,-99.99,,2013-09-16 14:22:00,
2013-09-16 08:52:00,54.0,-99.9,-100.00,South,177,6.0,8.0,-999,0.00,,,-99.99,,2013-09-16 14:52:00,
2013-09-16 09:22:00,57.0,-99.9,-100.00,SSW,195,7.0,9.0,-999,0.00,,,-99.99,,2013-09-16 15:22:00,
2013-09-16 09:53:00,59.0,-99.9,-100.00,SSW,193,6.0,8.0,-999,0.00,,,-99.99,,2013-09-16 15:53:00,
2013-09-16 10:23:00,59.0,-99.9,-100.00,SW,214,6.0,8.0,-999,0.00,,,-99.99,,2013-09-16 16:23:00,
2013-09-16 10:52:00,65.0,-99.9,-100.00,SSW,193,7.0,9.0,-999,0.00,,,-99.99,,2013-09-16 16:52:00,
2013-09-16 11:23:00,67.0,-99.9,-100.00,SSW,195,6.0,8.0,-999,0.00,,,-99.99,,2013-09-16 17:23:00,
2013-09-16 11:53:00,69.0,-99.9,-100.00,SSW,211,7.0,8.0,-999,0.00,,,-99.99,,2013-09-16 17:53:00,
2013-09-16 12:22:00,71.0,-99.9,-100.00,SW,221,6.0,8.0,-999,0.00,,,-99.99,,2013-09-16 18:22:00,
2013-09-16 12:52:00,73.0,-99.9,-100.00,SW,217,6.0,7.0,-999,0.00,,,-99.99,,2013-09-16 18:52:00,
2013-09-16 13:22:00,75.0,-99.9,-100.00,SW,215,6.0,7.0,-999,0.00,,,-99.99,,2013-09-16 19:22:00,
2013-09-16 13:53:00,76.0,-99.9,-100.00,SSW,210,6.0,8.0,-999,0.00,,,-99.99,,2013-09-16 19:53:00,
2013-09-16 14:22:00,77.0,-99.9,-100.00,SW,221,4.0,6.0,-999,0.00,,,-99.99,,2013-09-16 20:22:00,
2013-09-16 14:52:00,79.0,-99.9,-100.00,SW,214,6.0,8.0,-999,0.00,,,-99.99,,2013-09-16 20:52:00,
2013-09-16 15:22:00,78.0,-99.9,-100.00,SW,219,6.0,7.0,-999,0.00,,,-99.99,,2013-09-16 21:22:00,
2013-09-16 15:56:00,80.0,-99.9,-100.00,SW,218,6.0,7.0,-999,0.00,,,-99.99,,2013-09-16 21:56:00,
2013-09-16 16:25:00,82.0,-99.9,-100.00,SSW,197,6.0,8.0,-999,0.00,,,-99.99,,2013-09-16 22:25:00,
2013-09-16 16:54:00,81.0,-99.9,-100.00,SW,218,6.0,7.0,-999,0.00,,,-99.99,,2013-09-16 22:54:00,
2013-09-16 17:22:00,83.0,-99.9,-100.00,SSW,211,6.0,7.0,-999,0.00,,,-99.99,,2013-09-16 23:22:00,
2013-09-16 17:53:00,83.0,-99.9,-100.00,SW,233,6.0,7.0,-999,0.00,,,-99.99,,2013-09-16 23:53:00,
2013-09-16 18:22:00,83.0,-99.9,-100.00,SSW,212,5.0,6.0,-999,0.00,,,-99.99,,2013-09-17 00:22:00,
2013-09-16 18:52:00,80.0,-99.9,-100.00,North,0,0.0,0.0,-999,0.00,,,-99.99,,2013-09-17 00:52:00,
2013-09-16 19:22:00,77.0,-99.9,-100.00,North,0,0.0,0.0,-999,0.00,,,-99.99,,2013-09-17 01:22:00,
2013-09-16 19:52:00,72.0,-99.9,-100.00,North,0,0.0,0.0,-999,0.00,,,-99.99,,2013-09-17 01:52:00,
2013-09-16 20:22:00,71.0,-99.9,-100.00,North,0,0.0,0.0,-999,0.00,,,-99.99,,2013-09-17 02:22:00,
2013-09-16 20:53:00,69.0,-99.9,-100.00,South,183,5.0,7.0,-999,0.00,,,-99.99,,2013-09-17 02:53:00,
2013-09-16 21:23:00,69.0,-99.9,-100.00,SSW,194,5.0,6.0,-999,0.00,,,-99.99,,2013-09-17 03:23:00,
2013-09-16 21:54:00,67.0,-99.9,-100.00,North,0,0.0,0.0,-999,0.00,,,-99.99,,2013-09-17 03:54:00,
2013-09-16 22:24:00,66.0,-99.9,-100.00,SW,219,4.0,6.0,-999,0.00,,,-99.99,,2013-09-17 04:24:00,
2013-09-16 22:54:00,65.0,-99.9,-100.00,SW,215,3.0,5.0,-999,0.00,,,-99.99,,2013-09-17 04:54:00,
2013-09-16 23:23:00,64.0,-99.9,-100.00,SSW,197,1.0,3.0,-999,0.00,,,-99.99,,2013-09-17 05:23:00,
2013-09-16 23:52:00,63.0,-99.9,-100.00,North,0,0.0,0.0,-999,0.00,,,-99.99,,2013-09-17 05:52:00,